This demonstration page uses our WeatherBlox Daily Observations layout. Learn more.

Left ArrowRight Arrow

39.51506, -84.39828

Hourly Observations for September 22, 2020

Temp ( °F °C ) Dew Point ( °F °C ) Humidity (%) Winds ( mph kmh ) Pressure ( in mb ) Visibility ( mi km ) Precip ( " mm )
12:15 am 00:15 Clear 47 8.2 45 7 92 92 Calm 30.34 1028 10 16.0934 0 0
12:35 am 00:35 Clear 48 8.7 46 7.5 92 92 Calm 30.33 1027 10 16.0934 0 0
12:55 am 00:55 Clear 46 7.6 44 6.6 93 93 Calm 30.34 1027 10 16.0934 0 0
1:15 am 01:15 Clear 46 7.6 44 6.7 94 94 Calm 30.34 1027 10 16.0934 0 0
1:35 am 01:35 Clear 44 6.9 43 6.1 95 95 Calm 30.33 1027 10 16.0934 0 0
1:55 am 01:55 Clear 44 6.9 44 6.5 97 97 Calm 30.34 1027 10 16.0934 0 0
2:15 am 02:15 Clear 45 7 44 6.7 98 98 Calm 30.33 1027 10 16.0934 0 0
2:35 am 02:35 Clear 44 6.5 43 6.1 97 97 NNE 3 6 30.33 1027 10 16.0934 0 0
2:55 am 02:55 Clear 44 6.8 44 6.6 99 99 Calm 30.33 1027 10 16.0934 0 0
3:15 am 03:15 Clear 44 6.5 43 6.3 99 99 Calm 30.33 1027 10 16.0934 0 0
3:35 am 03:35 Clear 44 6.5 44 6.4 99 99 Calm 30.32 1027 10 16.0934 0 0
3:55 am 03:55 Clear 42 5.8 42 5.7 99 99 Calm 30.32 1027 10 16.0934 0 0
4:15 am 04:15 Clear 43 6.1 43 5.9 99 99 Calm 30.32 1027 10 16.0934 0 0
4:35 am 04:35 Clear 42 5.6 42 5.5 99 99 Calm 30.32 1027 10 16.0934 0 0
4:55 am 04:55 Clear 40 4.7 40 4.6 99 99 Calm 30.32 1027 10 16.0934 0 0
5:15 am 05:15 Clear 41 5.1 41 5.1 100 100 N 3 6 30.32 1027 10 16.0934 0 0
5:35 am 05:35 Clear 42 5.3 41 5.2 99 99 Calm 30.32 1027 10 16.0934 0 0
5:55 am 05:55 Clear 39 4 39 4 100 100 Calm 30.32 1027 10 16.0934 0 0
6:15 am 06:15 Clear 41 5 N/A N/A Calm 30.32 1027 10 16.0934 0 0
6:35 am 06:35 Clear 41 5 N/A N/A Calm 30.32 1027 10 16.0934 0 0
6:55 am 06:55 Clear 41 5 N/A N/A Calm 30.32 1027 10 16.0934 0 0
7:15 am 07:15 Clear 41 5 N/A N/A Calm 30.32 1027 10 16.0934 0 0
7:35 am 07:35 Sunny 41 5 N/A N/A Calm 30.32 1027 10 16.0934 0 0
7:55 am 07:55 Sunny 41 5 N/A N/A Calm 30.33 1027 10 16.0934 0 0
8:15 am 08:15 Sunny 43 6 N/A N/A Calm 30.33 1027 10 16.0934 0 0
8:35 am 08:35 Sunny 45 7.1 44 6.9 99 99 Calm 30.34 1027 10 16.0934 0 0
8:55 am 08:55 Sunny 47 8.5 46 7.6 94 94 Calm 30.33 1027 10 16.0934 0 0
9:15 am 09:15 Sunny 49 9.5 47 8.1 91 91 Calm 30.33 1027 10 16.0934 0 0
9:35 am 09:35 Sunny 52 11 47 8.5 85 85 Calm 30.32 1027 10 16.0934 0 0
9:55 am 09:55 Sunny 54 12.2 48 8.7 79 79 Calm 30.31 1027 10 16.0934 0 0
10:15 am 10:15 Sunny 58 14.3 48 8.9 70 70 Calm 30.31 1026 10 16.0934 0 0
10:35 am 10:35 Sunny 60 15.5 48 9.1 66 66 Calm 30.3 1026 10 16.0934 0 0
10:55 am 10:55 Sunny 62 16.8 47 8.5 58 58 Calm 30.29 1026 10 16.0934 0 0
11:15 am 11:15 Sunny 64 17.6 49 9.2 58 58 Calm 30.29 1026 10 16.0934 0 0
11:35 am 11:35 Sunny 66 18.7 48 9 53 53 Calm 30.28 1025 10 16.0934 0 0
11:55 am 11:55 Sunny 67 19.5 48 9 51 51 Calm 30.27 1025 10 16.0934 0 0
12:15 pm 12:15 Sunny 69 20.5 46 7.9 44 44 Calm 30.25 1024 10 16.0934 0 0
12:35 pm 12:35 Sunny 70 21.2 45 7.2 41 41 Calm 30.24 1024 10 16.0934 0 0
12:55 pm 12:55 Sunny 71 21.4 42 5.3 35 35 Calm 30.23 1024 10 16.0934 0 0
1:15 pm 13:15 Sunny 73 22.7 43 6.1 34 34 NNW 3 6 30.22 1023 10 16.0934 0 0
1:35 pm 13:35 Sunny 73 22.7 43 6.2 34 34 W 6 9 30.22 1023 10 16.0934 0 0
1:55 pm 13:55 Sunny 73 22.6 44 6.4 35 35 N 6 9 30.2 1023 10 16.0934 0 0
2:15 pm 14:15 Sunny 74 23.5 44 6.5 34 34 NE 3 6 30.19 1022 10 16.0934 0 0
2:35 pm 14:35 Sunny 74 23.5 44 6.4 33 33 E 3 6 30.18 1022 10 16.0934 0 0
2:55 pm 14:55 Sunny 76 24.3 44 6.6 32 32 SSE 5 7 30.16 1021 10 16.0934 0 0
3:15 pm 15:15 Sunny 75 23.7 43 6.3 33 33 S 5 7 30.16 1021 10 16.0934 0 0
3:35 pm 15:35 Sunny 76 24.4 43 6 31 31 ESE 3 6 30.14 1021 10 16.0934 0 0
3:55 pm 15:55 Sunny 76 24.4 43 5.9 30 30 S 3 6 30.14 1021 10 16.0934 0 0
4:15 pm 16:15 Sunny 75 24.1 43 5.9 31 31 Calm 30.14 1020 10 16.0934 0 0
4:35 pm 16:35 Sunny 77 24.8 42 5.8 30 30 Calm 30.12 1020 10 16.0934 0 0
4:55 pm 16:55 Sunny 76 24.6 43 5.9 30 30 Calm 30.12 1020 10 16.0934 0 0
5:15 pm 17:15 Sunny 76 24.3 42 5.8 30 30 Calm 30.11 1020 10 16.0934 0 0
5:35 pm 17:35 Sunny 76 24.5 44 6.5 32 32 S 3 6 30.1 1019 10 16.0934 0 0
5:55 pm 17:55 Sunny 76 24.2 43 5.9 31 31 Calm 30.1 1019 10 16.0934 0 0
6:15 pm 18:15 Sunny 75 23.7 44 6.9 34 34 SW 3 6 30.11 1020 10 16.0934 0 0
6:35 pm 18:35 Sunny 74 23.1 45 7.2 36 36 Calm 30.11 1020 10 16.0934 0 0
6:55 pm 18:55 Sunny 71 21.7 47 8.3 42 42 SW 3 6 30.11 1020 10 16.0934 0 0
7:15 pm 19:15 Sunny 68 19.9 50 9.9 53 53 Calm 30.11 1020 10 16.0934 0 0
7:35 pm 19:35 Clear 64 17.5 51 10.7 65 65 Calm 30.12 1020 10 16.0934 0 0
7:55 pm 19:55 Clear 62 16.9 51 10.4 66 66 Calm 30.12 1020 10 16.0934 0 0
8:15 pm 20:15 Clear 62 16.5 51 10.6 68 68 Calm 30.13 1020 10 16.0934 0 0
8:35 pm 20:35 Clear 59 15 51 10.4 74 74 Calm 30.14 1021 10 16.0934 0 0
8:55 pm 20:55 Clear 59 14.9 51 10.6 76 76 Calm 30.14 1021 10 16.0934 0 0
9:15 pm 21:15 Clear 57 13.7 50 10.1 79 79 Calm 30.14 1021 10 16.0934 0 0
9:35 pm 21:35 Clear 58 14.2 52 11.1 82 82 Calm 30.14 1021 10 16.0934 0 0
9:55 pm 21:55 Clear 56 13.3 50 10.1 81 81 Calm 30.14 1021 10 16.0934 0 0
10:15 pm 22:15 Clear 55 12.9 50 10.2 84 84 Calm 30.14 1021 10 16.0934 0 0
10:35 pm 22:35 Clear 54 12.4 50 10.2 87 87 Calm 30.13 1020 10 16.0934 0 0
10:55 pm 22:55 Clear 53 11.6 50 10 90 90 Calm 30.15 1021 10 16.0934 0 0
11:15 pm 23:15 Clear 53 11.8 50 9.9 88 88 Calm 30.14 1021 10 16.0934 0 0
11:35 pm 23:35 Clear 52 11.3 49 9.7 90 90 Calm 30.14 1021 10 16.0934 0 0
11:55 pm 23:55 Clear 53 11.4 50 9.9 91 91 Calm 30.15 1021 10 16.0934 0 0

Powered by AerisWeather